Year,Month,Day,Hour,Minute,Value (Times are PST for temperature in C)
2014,08,10,00,00,19.20
2014,08,10,00,01,19.10
2014,08,10,00,02,19.10
2014,08,10,00,03,19.10
2014,08,10,00,04,19.10
2014,08,10,00,05,19.10
2014,08,10,00,06,19.10
2014,08,10,00,07,19.00
2014,08,10,00,08,19.00
2014,08,10,00,09,19.00
2014,08,10,00,10,19.00
2014,08,10,00,11,18.90
2014,08,10,00,12,18.90
2014,08,10,00,13,18.90
2014,08,10,00,14,18.90
2014,08,10,00,15,18.80
2014,08,10,00,16,18.80
2014,08,10,00,17,18.80
2014,08,10,00,18,18.70
2014,08,10,00,19,18.70
2014,08,10,00,20,18.70
2014,08,10,00,21,18.60
2014,08,10,00,22,18.60
2014,08,10,00,23,18.60
2014,08,10,00,24,18.50
2014,08,10,00,25,18.50
2014,08,10,00,26,18.50
2014,08,10,00,27,18.50
2014,08,10,00,28,18.50
2014,08,10,00,29,18.50
2014,08,10,00,30,18.50
2014,08,10,00,31,18.50
2014,08,10,00,32,18.50
2014,08,10,00,33,18.50
2014,08,10,00,34,18.60
2014,08,10,00,35,18.60
2014,08,10,00,36,18.60
2014,08,10,00,37,18.60
2014,08,10,00,38,18.60
2014,08,10,00,39,18.60
2014,08,10,00,40,18.60
2014,08,10,00,41,18.70
2014,08,10,00,42,18.70
2014,08,10,00,43,18.70
2014,08,10,00,44,18.70
2014,08,10,00,45,18.70
2014,08,10,00,46,18.70
2014,08,10,00,47,18.60
2014,08,10,00,48,18.60
2014,08,10,00,49,18.60
2014,08,10,00,50,18.60
2014,08,10,00,51,18.60
2014,08,10,00,52,18.60
2014,08,10,00,53,18.60
2014,08,10,00,54,18.60
2014,08,10,00,55,18.70
2014,08,10,00,56,18.70
2014,08,10,00,57,18.70
2014,08,10,00,58,18.70
2014,08,10,00,59,18.70
2014,08,10,01,00,18.70
2014,08,10,01,01,18.70
2014,08,10,01,02,18.60
2014,08,10,01,03,18.60
2014,08,10,01,04,18.70
2014,08,10,01,05,18.70
2014,08,10,01,06,18.70
2014,08,10,01,07,18.70
2014,08,10,01,08,18.70
2014,08,10,01,09,18.70
2014,08,10,01,10,18.70
2014,08,10,01,11,18.70
2014,08,10,01,12,18.70
2014,08,10,01,13,18.70
2014,08,10,01,14,18.70
2014,08,10,01,15,18.70
2014,08,10,01,16,18.70
2014,08,10,01,17,18.60
2014,08,10,01,18,18.60
2014,08,10,01,19,18.60
2014,08,10,01,20,18.60
2014,08,10,01,21,18.60
2014,08,10,01,22,18.50
2014,08,10,01,23,18.50
2014,08,10,01,24,18.50
2014,08,10,01,25,18.40
2014,08,10,01,26,18.40
2014,08,10,01,27,18.40
2014,08,10,01,28,18.40
2014,08,10,01,29,18.30
2014,08,10,01,30,18.30
2014,08,10,01,31,18.30
2014,08,10,01,32,18.30
2014,08,10,01,33,18.30
2014,08,10,01,34,18.30
2014,08,10,01,35,18.30
2014,08,10,01,36,18.30
2014,08,10,01,37,18.30
2014,08,10,01,38,18.30
2014,08,10,01,39,18.30
2014,08,10,01,40,18.30
2014,08,10,01,41,18.30
2014,08,10,01,42,18.30
2014,08,10,01,43,18.20
2014,08,10,01,44,18.20
2014,08,10,01,45,18.20
2014,08,10,01,46,18.20
2014,08,10,01,47,18.20
2014,08,10,01,48,18.20
2014,08,10,01,49,18.20
2014,08,10,01,50,18.20
2014,08,10,01,51,18.10
2014,08,10,01,52,18.10
2014,08,10,01,53,18.10
2014,08,10,01,54,18.10
2014,08,10,01,55,18.10
2014,08,10,01,56,18.10
2014,08,10,01,57,18.10
2014,08,10,01,58,18.10
2014,08,10,01,59,18.10
2014,08,10,02,00,18.10
2014,08,10,02,01,18.10
2014,08,10,02,02,18.10
2014,08,10,02,03,18.10
2014,08,10,02,04,18.10
2014,08,10,02,05,18.10
2014,08,10,02,06,18.10
2014,08,10,02,07,18.00
2014,08,10,02,08,18.00
2014,08,10,02,09,18.00
2014,08,10,02,10,18.00
2014,08,10,02,11,18.00
2014,08,10,02,12,18.00
2014,08,10,02,13,18.00
2014,08,10,02,14,18.00
2014,08,10,02,15,17.90
2014,08,10,02,16,17.90
2014,08,10,02,17,17.90
2014,08,10,02,18,17.90
2014,08,10,02,19,17.90
2014,08,10,02,20,17.90
2014,08,10,02,21,17.90
2014,08,10,02,22,17.90
2014,08,10,02,23,18.00
2014,08,10,02,24,18.00
2014,08,10,02,25,18.10
2014,08,10,02,26,18.10
2014,08,10,02,27,18.20
2014,08,10,02,28,18.20
2014,08,10,02,29,18.20
2014,08,10,02,30,18.20
2014,08,10,02,31,18.20
2014,08,10,02,32,18.20
2014,08,10,02,33,18.20
2014,08,10,02,34,18.10
2014,08,10,02,35,18.10
2014,08,10,02,36,18.10
2014,08,10,02,37,18.20
2014,08,10,02,38,18.20
2014,08,10,02,39,18.20
2014,08,10,02,40,18.20
2014,08,10,02,41,18.20
2014,08,10,02,42,18.20
2014,08,10,02,43,18.20
2014,08,10,02,44,18.20
2014,08,10,02,45,18.10
2014,08,10,02,46,18.10
2014,08,10,02,47,18.10
2014,08,10,02,48,18.10
2014,08,10,02,49,18.10
2014,08,10,02,50,18.10
2014,08,10,02,51,18.00
2014,08,10,02,52,18.00
2014,08,10,02,53,18.00
2014,08,10,02,54,18.00
2014,08,10,02,55,18.00
2014,08,10,02,56,18.00
2014,08,10,02,57,18.00
2014,08,10,02,58,18.00
2014,08,10,02,59,18.00
2014,08,10,03,00,18.00
2014,08,10,03,01,18.00
2014,08,10,03,02,17.90
2014,08,10,03,03,17.90
2014,08,10,03,04,17.90
2014,08,10,03,05,17.90
2014,08,10,03,06,17.90
2014,08,10,03,07,17.90
2014,08,10,03,08,17.80
2014,08,10,03,09,17.80
2014,08,10,03,10,17.80
2014,08,10,03,11,17.80
2014,08,10,03,12,17.80
2014,08,10,03,13,17.70
2014,08,10,03,14,17.70
2014,08,10,03,15,17.70
2014,08,10,03,16,17.70
2014,08,10,03,17,17.70
2014,08,10,03,18,17.70
2014,08,10,03,19,17.60
2014,08,10,03,20,17.60
2014,08,10,03,21,17.60
2014,08,10,03,22,17.60
2014,08,10,03,23,17.60
2014,08,10,03,24,17.60
2014,08,10,03,25,17.50
2014,08,10,03,26,17.50
2014,08,10,03,27,17.50
2014,08,10,03,28,17.50
2014,08,10,03,29,17.40
2014,08,10,03,30,17.40
2014,08,10,03,31,17.40
2014,08,10,03,32,17.30
2014,08,10,03,33,17.30
2014,08,10,03,34,17.20
2014,08,10,03,35,17.20
2014,08,10,03,36,17.10
2014,08,10,03,37,17.10
2014,08,10,03,38,17.00
2014,08,10,03,39,17.00
2014,08,10,03,40,16.90
2014,08,10,03,41,16.90
2014,08,10,03,42,16.80
2014,08,10,03,43,16.80
2014,08,10,03,44,16.80
2014,08,10,03,45,16.70
2014,08,10,03,46,16.70
2014,08,10,03,47,16.60
2014,08,10,03,48,16.60
2014,08,10,03,49,16.50
2014,08,10,03,50,16.50
2014,08,10,03,51,16.40
2014,08,10,03,52,16.40
2014,08,10,03,53,16.40
2014,08,10,03,54,16.30
2014,08,10,03,55,16.30
2014,08,10,03,56,16.20
2014,08,10,03,57,16.20
2014,08,10,03,58,16.20
2014,08,10,03,59,16.10
2014,08,10,04,00,16.10
2014,08,10,04,01,16.00
2014,08,10,04,02,16.00
2014,08,10,04,03,16.00
2014,08,10,04,04,15.90
2014,08,10,04,05,15.90
2014,08,10,04,06,15.90
2014,08,10,04,07,15.80
2014,08,10,04,08,15.80
2014,08,10,04,09,15.80
2014,08,10,04,10,15.80
2014,08,10,04,11,15.80
2014,08,10,04,12,15.80
2014,08,10,04,13,15.80
2014,08,10,04,14,15.80
2014,08,10,04,15,15.80
2014,08,10,04,16,15.70
2014,08,10,04,17,15.70
2014,08,10,04,18,15.70
2014,08,10,04,19,15.70
2014,08,10,04,20,15.70
2014,08,10,04,21,15.70
2014,08,10,04,22,15.70
2014,08,10,04,23,15.70
2014,08,10,04,24,15.70
2014,08,10,04,25,15.70
2014,08,10,04,26,15.70
2014,08,10,04,27,15.60
2014,08,10,04,28,15.60
2014,08,10,04,29,15.60
2014,08,10,04,30,15.60
2014,08,10,04,31,15.60
2014,08,10,04,32,15.60
2014,08,10,04,33,15.60
2014,08,10,04,34,15.60
2014,08,10,04,35,15.60
2014,08,10,04,36,15.50
2014,08,10,04,37,15.50
2014,08,10,04,38,15.50
2014,08,10,04,39,15.50
2014,08,10,04,40,15.50
2014,08,10,04,41,15.50
2014,08,10,04,42,15.50
2014,08,10,04,43,15.40
2014,08,10,04,44,15.40
2014,08,10,04,45,15.40
2014,08,10,04,46,15.40
2014,08,10,04,47,15.40
2014,08,10,04,48,15.40
2014,08,10,04,49,15.40
2014,08,10,04,50,15.30
2014,08,10,04,51,15.30
2014,08,10,04,52,15.30
2014,08,10,04,53,15.30
2014,08,10,04,54,15.30
2014,08,10,04,55,15.20
2014,08,10,04,56,15.20
2014,08,10,04,57,15.20
2014,08,10,04,58,15.20
2014,08,10,04,59,15.20
2014,08,10,05,00,15.20
2014,08,10,05,01,15.20
2014,08,10,05,02,15.20
2014,08,10,05,03,15.20
2014,08,10,05,04,15.20
2014,08,10,05,05,15.20
2014,08,10,05,06,15.20
2014,08,10,05,07,15.20
2014,08,10,05,08,15.20
2014,08,10,05,09,15.20
2014,08,10,05,10,15.20
2014,08,10,05,11,15.20
2014,08,10,05,12,15.20
2014,08,10,05,13,15.10
2014,08,10,05,14,15.10
2014,08,10,05,15,15.10
2014,08,10,05,16,15.10
2014,08,10,05,17,15.10
2014,08,10,05,18,15.10
2014,08,10,05,19,15.10
2014,08,10,05,20,15.10
2014,08,10,05,21,15.10
2014,08,10,05,22,15.10
2014,08,10,05,23,15.10
2014,08,10,05,24,15.20
2014,08,10,05,25,15.20
2014,08,10,05,26,15.20
2014,08,10,05,27,15.20
2014,08,10,05,28,15.30
2014,08,10,05,29,15.30
2014,08,10,05,30,15.30
2014,08,10,05,31,15.30
2014,08,10,05,32,15.40
2014,08,10,05,33,15.40
2014,08,10,05,34,15.40
2014,08,10,05,35,15.40
2014,08,10,05,36,15.40
2014,08,10,05,37,15.30
2014,08,10,05,38,15.30
2014,08,10,05,39,15.30
2014,08,10,05,40,15.30
2014,08,10,05,41,15.30
2014,08,10,05,42,15.30
2014,08,10,05,43,15.30
2014,08,10,05,44,15.30
2014,08,10,05,45,15.30
2014,08,10,05,46,15.30
2014,08,10,05,47,15.30
2014,08,10,05,48,15.30
2014,08,10,05,49,15.30
2014,08,10,05,50,15.30
2014,08,10,05,51,15.30
2014,08,10,05,52,15.30
2014,08,10,05,53,15.30
2014,08,10,05,54,15.30
2014,08,10,05,55,15.30
2014,08,10,05,56,15.30
2014,08,10,05,57,15.30
2014,08,10,05,58,15.30
2014,08,10,05,59,15.30
2014,08,10,06,00,15.20
2014,08,10,06,01,15.20
2014,08,10,06,02,15.20
2014,08,10,06,03,15.20
2014,08,10,06,04,15.20
2014,08,10,06,05,15.20
2014,08,10,06,06,15.20
2014,08,10,06,07,15.20
2014,08,10,06,08,15.20
2014,08,10,06,09,15.20
2014,08,10,06,10,15.30
2014,08,10,06,11,15.30
2014,08,10,06,12,15.30
2014,08,10,06,13,15.30
2014,08,10,06,14,15.30
2014,08,10,06,15,15.40
2014,08,10,06,16,15.40
2014,08,10,06,17,15.40
2014,08,10,06,18,15.40
2014,08,10,06,19,15.40
2014,08,10,06,20,15.40
2014,08,10,06,21,15.40
2014,08,10,06,22,15.40
2014,08,10,06,23,15.40
2014,08,10,06,24,15.50
2014,08,10,06,25,15.50
2014,08,10,06,26,15.50
2014,08,10,06,27,15.60
2014,08,10,06,28,15.60
2014,08,10,06,29,15.70
2014,08,10,06,30,15.70
2014,08,10,06,31,15.80
2014,08,10,06,32,15.90
2014,08,10,06,33,15.90
2014,08,10,06,34,15.90
2014,08,10,06,35,16.00
2014,08,10,06,36,16.00
2014,08,10,06,37,16.00
2014,08,10,06,38,16.00
2014,08,10,06,39,16.00
2014,08,10,06,40,16.10
2014,08,10,06,41,16.10
2014,08,10,06,42,16.10
2014,08,10,06,43,16.10
2014,08,10,06,44,16.10
2014,08,10,06,45,16.10
2014,08,10,06,46,16.10
2014,08,10,06,47,16.20
2014,08,10,06,48,16.20
2014,08,10,06,49,16.20
2014,08,10,06,50,16.30
2014,08,10,06,51,16.30
2014,08,10,06,52,16.30
2014,08,10,06,53,16.40
2014,08,10,06,54,16.40
2014,08,10,06,55,16.50
2014,08,10,06,56,16.50
2014,08,10,06,57,16.60
2014,08,10,06,58,16.60
2014,08,10,06,59,16.60
2014,08,10,07,00,16.60
2014,08,10,07,01,16.70
2014,08,10,07,02,16.70
2014,08,10,07,03,16.70
2014,08,10,07,04,16.70
2014,08,10,07,05,16.70
2014,08,10,07,06,16.70
2014,08,10,07,07,16.70
2014,08,10,07,08,16.80
2014,08,10,07,09,16.80
2014,08,10,07,10,16.80
2014,08,10,07,11,16.80
2014,08,10,07,12,16.90
2014,08,10,07,13,16.90
2014,08,10,07,14,17.00
2014,08,10,07,15,17.00
2014,08,10,07,16,17.10
2014,08,10,07,17,17.10
2014,08,10,07,18,17.10
2014,08,10,07,19,17.20
2014,08,10,07,20,17.20
2014,08,10,07,21,17.20
2014,08,10,07,22,17.30
2014,08,10,07,23,17.30
2014,08,10,07,24,17.30
2014,08,10,07,25,17.30
2014,08,10,07,26,17.40
2014,08,10,07,27,17.40
2014,08,10,07,28,17.40
2014,08,10,07,29,17.40
2014,08,10,07,30,17.50
2014,08,10,07,31,17.50
2014,08,10,07,32,17.60
2014,08,10,07,33,17.60
2014,08,10,07,34,17.60
2014,08,10,07,35,17.70
2014,08,10,07,36,17.70
2014,08,10,07,37,17.70
2014,08,10,07,38,17.80
2014,08,10,07,39,17.80
2014,08,10,07,40,17.80
2014,08,10,07,41,17.80
2014,08,10,07,42,17.90
2014,08,10,07,43,17.90
2014,08,10,07,44,17.90
2014,08,10,07,45,17.90
2014,08,10,07,46,18.00
2014,08,10,07,47,18.00
2014,08,10,07,48,18.10
2014,08,10,07,49,18.10
2014,08,10,07,50,18.10
2014,08,10,07,51,18.20
2014,08,10,07,52,18.20
2014,08,10,07,53,18.20
2014,08,10,07,54,18.30
2014,08,10,07,55,18.30
2014,08,10,07,56,18.40
2014,08,10,07,57,18.40
2014,08,10,07,58,18.40
2014,08,10,07,59,18.50
2014,08,10,08,00,18.50
2014,08,10,08,01,18.60
2014,08,10,08,02,18.60
2014,08,10,08,03,18.70
2014,08,10,08,04,18.70
2014,08,10,08,05,18.70
2014,08,10,08,06,18.70
2014,08,10,08,07,18.70
2014,08,10,08,08,18.70
2014,08,10,08,09,18.80
2014,08,10,08,10,18.80
2014,08,10,08,11,18.80
2014,08,10,08,12,18.90
2014,08,10,08,13,18.90
2014,08,10,08,14,19.00
2014,08,10,08,15,19.00
2014,08,10,08,16,19.10
2014,08,10,08,17,19.10
2014,08,10,08,18,19.10
2014,08,10,08,19,19.20
2014,08,10,08,20,19.20
2014,08,10,08,21,19.20
2014,08,10,08,22,19.30
2014,08,10,08,23,19.30
2014,08,10,08,24,19.30
2014,08,10,08,25,19.30
2014,08,10,08,26,19.30
2014,08,10,08,27,19.30
2014,08,10,08,28,19.30
2014,08,10,08,29,19.30
2014,08,10,08,30,19.30
2014,08,10,08,31,19.30
2014,08,10,08,32,19.30
2014,08,10,08,33,19.30
2014,08,10,08,34,19.30
2014,08,10,08,35,19.30
2014,08,10,08,36,19.20
2014,08,10,08,37,19.20
2014,08,10,08,38,19.10
2014,08,10,08,39,19.10
2014,08,10,08,40,19.10
2014,08,10,08,41,19.00
2014,08,10,08,42,19.00
2014,08,10,08,43,19.00
2014,08,10,08,44,19.00
2014,08,10,08,45,19.00
2014,08,10,08,46,19.00
2014,08,10,08,47,19.00
2014,08,10,08,48,19.10
2014,08,10,08,49,19.10
2014,08,10,08,50,19.20
2014,08,10,08,51,19.20
2014,08,10,08,52,19.20
2014,08,10,08,53,19.20
2014,08,10,08,54,19.20
2014,08,10,08,55,19.20
2014,08,10,08,56,19.20
2014,08,10,08,57,19.20
2014,08,10,08,58,19.30
2014,08,10,08,59,19.30
2014,08,10,09,00,19.30
2014,08,10,09,01,19.20
2014,08,10,09,02,19.20
2014,08,10,09,03,19.20
2014,08,10,09,04,19.20
2014,08,10,09,05,19.20
2014,08,10,09,06,19.20
2014,08,10,09,07,19.20
2014,08,10,09,08,19.20
2014,08,10,09,09,19.20
2014,08,10,09,10,19.20
2014,08,10,09,11,19.20
2014,08,10,09,12,19.30
2014,08,10,09,13,19.30
2014,08,10,09,14,19.30
2014,08,10,09,15,19.30
2014,08,10,09,16,19.30
2014,08,10,09,17,19.40
2014,08,10,09,18,19.40
2014,08,10,09,19,19.50
2014,08,10,09,20,19.50
2014,08,10,09,21,19.50
2014,08,10,09,22,19.60
2014,08,10,09,23,19.60
2014,08,10,09,24,19.60
2014,08,10,09,25,19.60
2014,08,10,09,26,19.70
2014,08,10,09,27,19.70
2014,08,10,09,28,19.70
2014,08,10,09,29,19.70
2014,08,10,09,30,19.70
2014,08,10,09,31,19.70
2014,08,10,09,32,19.70
2014,08,10,09,33,19.70
2014,08,10,09,34,19.60
2014,08,10,09,35,19.60
2014,08,10,09,36,19.60
2014,08,10,09,37,19.60
2014,08,10,09,38,19.70
2014,08,10,09,39,19.70
2014,08,10,09,40,19.60
2014,08,10,09,41,19.70
2014,08,10,09,42,19.70
2014,08,10,09,43,19.70
2014,08,10,09,44,19.70
2014,08,10,09,45,19.70
2014,08,10,09,46,19.70
2014,08,10,09,47,19.70
2014,08,10,09,48,19.60
2014,08,10,09,49,19.60
2014,08,10,09,50,19.60
2014,08,10,09,51,19.60
2014,08,10,09,52,19.60
2014,08,10,09,53,19.60
2014,08,10,09,54,19.60
2014,08,10,09,55,19.70
2014,08,10,09,56,19.70
2014,08,10,09,57,19.80
2014,08,10,09,58,19.90
2014,08,10,09,59,19.90
2014,08,10,10,00,20.00
2014,08,10,10,01,20.00
2014,08,10,10,02,20.00
2014,08,10,10,03,20.10
2014,08,10,10,04,20.20
2014,08,10,10,05,20.20
2014,08,10,10,06,20.30
2014,08,10,10,07,20.30
2014,08,10,10,08,20.40
2014,08,10,10,09,20.50
2014,08,10,10,10,20.50
2014,08,10,10,11,20.60
2014,08,10,10,12,20.70
2014,08,10,10,13,20.80
2014,08,10,10,14,20.80
2014,08,10,10,15,20.80
2014,08,10,10,16,20.90
2014,08,10,10,17,20.90
2014,08,10,10,18,21.00
2014,08,10,10,19,21.10
2014,08,10,10,20,21.30
2014,08,10,10,21,21.30
2014,08,10,10,22,21.30
2014,08,10,10,23,21.30
2014,08,10,10,24,21.40
2014,08,10,10,25,21.40
2014,08,10,10,26,21.50
2014,08,10,10,27,21.50
2014,08,10,10,28,21.60
2014,08,10,10,29,21.70
2014,08,10,10,30,21.80
2014,08,10,10,31,21.80
2014,08,10,10,32,21.80
2014,08,10,10,33,21.80
2014,08,10,10,34,21.90
2014,08,10,10,35,21.90
2014,08,10,10,36,22.00
2014,08,10,10,37,22.00
2014,08,10,10,38,22.10
2014,08,10,10,39,22.10
2014,08,10,10,40,22.10
2014,08,10,10,41,22.10
2014,08,10,10,42,22.20
2014,08,10,10,43,22.20
2014,08,10,10,44,22.30
2014,08,10,10,45,22.30
2014,08,10,10,46,22.40
2014,08,10,10,47,22.40
2014,08,10,10,48,22.40
2014,08,10,10,49,22.40
2014,08,10,10,50,22.30
2014,08,10,10,51,22.20
2014,08,10,10,52,22.10
2014,08,10,10,53,22.00
2014,08,10,10,54,21.90
2014,08,10,10,55,21.80
2014,08,10,10,56,21.80
2014,08,10,10,57,21.70
2014,08,10,10,58,21.80
2014,08,10,10,59,21.80
2014,08,10,11,00,21.80
2014,08,10,11,01,21.80
2014,08,10,11,02,21.90
2014,08,10,11,03,22.00
2014,08,10,11,04,22.10
2014,08,10,11,05,22.20
2014,08,10,11,06,22.30
2014,08,10,11,07,22.30
2014,08,10,11,08,22.30
2014,08,10,11,09,22.30
2014,08,10,11,10,22.30
2014,08,10,11,11,22.30
2014,08,10,11,12,22.40
2014,08,10,11,13,22.40
2014,08,10,11,14,22.50
2014,08,10,11,15,22.70
2014,08,10,11,16,22.80
2014,08,10,11,17,22.80
2014,08,10,11,18,22.80
2014,08,10,11,19,22.70
2014,08,10,11,20,22.60
2014,08,10,11,21,22.50
2014,08,10,11,22,22.40
2014,08,10,11,23,22.40
2014,08,10,11,24,22.30
2014,08,10,11,25,22.30
2014,08,10,11,26,22.30
2014,08,10,11,27,22.40
2014,08,10,11,28,22.40
2014,08,10,11,29,22.50
2014,08,10,11,30,22.50
2014,08,10,11,31,22.60
2014,08,10,11,32,22.60
2014,08,10,11,33,22.70
2014,08,10,11,34,22.70
2014,08,10,11,35,22.70
2014,08,10,11,36,22.70
2014,08,10,11,37,22.80
2014,08,10,11,38,22.80
2014,08,10,11,39,22.90
2014,08,10,11,40,23.00
2014,08,10,11,41,23.10
2014,08,10,11,42,23.20
2014,08,10,11,43,23.20
2014,08,10,11,44,23.30
2014,08,10,11,45,23.40
2014,08,10,11,46,23.50
2014,08,10,11,47,23.60
2014,08,10,11,48,23.70
2014,08,10,11,49,23.70
2014,08,10,11,50,23.70
2014,08,10,11,51,23.70
2014,08,10,11,52,23.70
2014,08,10,11,53,23.70
2014,08,10,11,54,23.70
2014,08,10,11,55,23.70
2014,08,10,11,56,23.80
2014,08,10,11,57,23.90
2014,08,10,11,58,23.90
2014,08,10,11,59,24.00
2014,08,10,12,00,24.00
2014,08,10,12,01,24.10
2014,08,10,12,02,24.20
2014,08,10,12,03,24.30
2014,08,10,12,04,24.30
2014,08,10,12,05,24.40
2014,08,10,12,06,24.40
2014,08,10,12,07,24.50
2014,08,10,12,08,24.50
2014,08,10,12,09,24.50
2014,08,10,12,10,24.40
2014,08,10,12,11,24.40
2014,08,10,12,12,24.40
2014,08,10,12,13,24.40
2014,08,10,12,14,24.40
2014,08,10,12,15,24.40
2014,08,10,12,16,24.40
2014,08,10,12,17,24.40
2014,08,10,12,18,24.40
2014,08,10,12,19,24.40
2014,08,10,12,20,24.40
2014,08,10,12,21,24.40
2014,08,10,12,22,24.40
2014,08,10,12,23,24.40
2014,08,10,12,24,24.40
2014,08,10,12,25,24.40
2014,08,10,12,26,24.30
2014,08,10,12,27,24.20
2014,08,10,12,28,24.10
2014,08,10,12,29,24.10
2014,08,10,12,30,24.00
2014,08,10,12,31,24.00
2014,08,10,12,32,24.00
2014,08,10,12,33,24.00
2014,08,10,12,34,24.10
2014,08,10,12,35,24.20
2014,08,10,12,36,24.20
2014,08,10,12,37,24.30
2014,08,10,12,38,24.40
2014,08,10,12,39,24.40
2014,08,10,12,40,24.50
2014,08,10,12,41,24.60
2014,08,10,12,42,24.60
2014,08,10,12,43,24.70
2014,08,10,12,44,24.70
2014,08,10,12,45,24.80
2014,08,10,12,46,24.80
2014,08,10,12,47,24.80
2014,08,10,12,48,24.80
2014,08,10,12,49,24.70
2014,08,10,12,50,24.70
2014,08,10,12,51,24.80
2014,08,10,12,52,24.90
2014,08,10,12,53,25.00
2014,08,10,12,54,25.00
2014,08,10,12,55,25.10
2014,08,10,12,56,25.10
2014,08,10,12,57,25.20
2014,08,10,12,58,25.20
2014,08,10,12,59,25.30
2014,08,10,13,00,25.40
2014,08,10,13,01,25.40
2014,08,10,13,02,25.50
2014,08,10,13,03,25.50
2014,08,10,13,04,25.50
2014,08,10,13,05,25.50
2014,08,10,13,06,25.50
2014,08,10,13,07,25.60
2014,08,10,13,08,25.50
2014,08,10,13,09,25.40
2014,08,10,13,10,25.40
2014,08,10,13,11,25.40
2014,08,10,13,12,25.50
2014,08,10,13,13,25.50
2014,08,10,13,14,25.60
2014,08,10,13,15,25.50
2014,08,10,13,16,25.60
2014,08,10,13,17,25.60
2014,08,10,13,18,25.60
2014,08,10,13,19,25.60
2014,08,10,13,20,25.60
2014,08,10,13,21,25.60
2014,08,10,13,22,25.70
2014,08,10,13,23,25.70
2014,08,10,13,24,25.80
2014,08,10,13,25,25.80
2014,08,10,13,26,25.70
2014,08,10,13,27,25.70
2014,08,10,13,28,25.70
2014,08,10,13,29,25.60
2014,08,10,13,30,25.50
2014,08,10,13,31,25.50
2014,08,10,13,32,25.50
2014,08,10,13,33,25.50
2014,08,10,13,34,25.50
2014,08,10,13,35,25.50
2014,08,10,13,36,25.50
2014,08,10,13,37,25.60
2014,08,10,13,38,25.60
2014,08,10,13,39,25.70
2014,08,10,13,40,25.70
2014,08,10,13,41,25.70
2014,08,10,13,42,25.70
2014,08,10,13,43,25.70
2014,08,10,13,44,25.70
2014,08,10,13,45,25.80
2014,08,10,13,46,25.80
2014,08,10,13,47,25.80
2014,08,10,13,48,25.90
2014,08,10,13,49,25.90
2014,08,10,13,50,26.00
2014,08,10,13,51,26.00
2014,08,10,13,52,26.10
2014,08,10,13,53,26.20
2014,08,10,13,54,26.30
2014,08,10,13,55,26.30
2014,08,10,13,56,26.30
2014,08,10,13,57,26.30
2014,08,10,13,58,26.40
2014,08,10,13,59,26.60
2014,08,10,14,00,26.60
2014,08,10,14,01,26.60
2014,08,10,14,02,26.60
2014,08,10,14,03,26.60
2014,08,10,14,04,26.60
2014,08,10,14,05,26.70
2014,08,10,14,06,26.80
2014,08,10,14,07,26.80
2014,08,10,14,08,26.80
2014,08,10,14,09,26.80
2014,08,10,14,10,26.80
2014,08,10,14,11,26.90
2014,08,10,14,12,27.00
2014,08,10,14,13,27.10
2014,08,10,14,14,27.10
2014,08,10,14,15,27.10
2014,08,10,14,16,27.10
2014,08,10,14,17,27.10
2014,08,10,14,18,27.10
2014,08,10,14,19,27.20
2014,08,10,14,20,27.20
2014,08,10,14,21,27.20
2014,08,10,14,22,27.20
2014,08,10,14,23,27.30
2014,08,10,14,24,27.30
2014,08,10,14,25,27.40
2014,08,10,14,26,27.40
2014,08,10,14,27,27.40
2014,08,10,14,28,27.50
2014,08,10,14,29,27.60
2014,08,10,14,30,27.60
2014,08,10,14,31,27.70
2014,08,10,14,32,27.80
2014,08,10,14,33,27.80
2014,08,10,14,34,27.80
2014,08,10,14,35,27.70
2014,08,10,14,36,27.60
2014,08,10,14,37,27.60
2014,08,10,14,38,27.60
2014,08,10,14,39,27.60
2014,08,10,14,40,27.70
2014,08,10,14,41,27.80
2014,08,10,14,42,27.80
2014,08,10,14,43,27.90
2014,08,10,14,44,27.90
2014,08,10,14,45,27.90
2014,08,10,14,46,28.10
2014,08,10,14,47,28.20
2014,08,10,14,48,28.20
2014,08,10,14,49,28.30
2014,08,10,14,50,28.30
2014,08,10,14,51,28.40
2014,08,10,14,52,28.40
2014,08,10,14,53,28.40
2014,08,10,14,54,28.50
2014,08,10,14,55,28.50
2014,08,10,14,56,28.60
2014,08,10,14,57,28.70
2014,08,10,14,58,28.70
2014,08,10,14,59,28.70
2014,08,10,15,00,28.70
2014,08,10,15,01,28.80
2014,08,10,15,02,28.80
2014,08,10,15,03,28.80
2014,08,10,15,04,28.80
2014,08,10,15,05,28.80
2014,08,10,15,06,28.70
2014,08,10,15,07,28.70
2014,08,10,15,08,28.70
2014,08,10,15,09,28.70
2014,08,10,15,10,28.60
2014,08,10,15,11,28.60
2014,08,10,15,12,28.60
2014,08,10,15,13,28.60
2014,08,10,15,14,28.70
2014,08,10,15,15,28.80
2014,08,10,15,16,28.80
2014,08,10,15,17,28.90
2014,08,10,15,18,28.90
2014,08,10,15,19,28.80
2014,08,10,15,20,28.80
2014,08,10,15,21,28.80
2014,08,10,15,22,28.80
2014,08,10,15,23,28.80
2014,08,10,15,24,28.80
2014,08,10,15,25,28.70
2014,08,10,15,26,28.70
2014,08,10,15,27,28.60
2014,08,10,15,28,28.60
2014,08,10,15,29,28.60
2014,08,10,15,30,28.60
2014,08,10,15,31,28.70
2014,08,10,15,32,28.70
2014,08,10,15,33,28.80
2014,08,10,15,34,28.80
2014,08,10,15,35,28.90
2014,08,10,15,36,29.00
2014,08,10,15,37,29.00
2014,08,10,15,38,29.00
2014,08,10,15,39,29.00
2014,08,10,15,40,29.00
2014,08,10,15,41,29.00
2014,08,10,15,42,29.00
2014,08,10,15,43,29.00
2014,08,10,15,44,29.00
2014,08,10,15,45,29.10
2014,08,10,15,46,29.10
2014,08,10,15,47,29.20
2014,08,10,15,48,29.30
2014,08,10,15,49,29.30
2014,08,10,15,50,29.40
2014,08,10,15,51,29.40
2014,08,10,15,52,29.40
2014,08,10,15,53,29.40
2014,08,10,15,54,29.50
2014,08,10,15,55,29.50
2014,08,10,15,56,29.50
2014,08,10,15,57,29.60
2014,08,10,15,58,29.60
2014,08,10,15,59,29.60
2014,08,10,16,00,29.70
2014,08,10,16,01,29.70
2014,08,10,16,02,29.80
2014,08,10,16,03,29.80
2014,08,10,16,04,29.80
2014,08,10,16,05,29.70
2014,08,10,16,06,29.60
2014,08,10,16,07,29.50
2014,08,10,16,08,29.40
2014,08,10,16,09,29.30
2014,08,10,16,10,29.30
2014,08,10,16,11,29.30
2014,08,10,16,12,29.30
2014,08,10,16,13,29.20
2014,08,10,16,14,29.20
2014,08,10,16,15,29.20
2014,08,10,16,16,29.20
2014,08,10,16,17,29.30
2014,08,10,16,18,29.30
2014,08,10,16,19,29.20
2014,08,10,16,20,29.30
2014,08,10,16,21,29.30
2014,08,10,16,22,29.40
2014,08,10,16,23,29.40
2014,08,10,16,24,29.40
2014,08,10,16,25,29.40
2014,08,10,16,26,29.40
2014,08,10,16,27,29.50
2014,08,10,16,28,29.50
2014,08,10,16,29,29.60
2014,08,10,16,30,29.60
2014,08,10,16,31,29.60
2014,08,10,16,32,29.60
2014,08,10,16,33,29.60
2014,08,10,16,34,29.70
2014,08,10,16,35,29.70
2014,08,10,16,36,29.70
2014,08,10,16,37,29.80
2014,08,10,16,38,29.80
2014,08,10,16,39,29.80
2014,08,10,16,40,29.80
2014,08,10,16,41,29.70
2014,08,10,16,42,29.70
2014,08,10,16,43,29.70
2014,08,10,16,44,29.70
2014,08,10,16,45,29.70
2014,08,10,16,46,29.70
2014,08,10,16,47,29.70
2014,08,10,16,48,29.60
2014,08,10,16,49,29.60
2014,08,10,16,50,29.60
2014,08,10,16,51,29.70
2014,08,10,16,52,29.80
2014,08,10,16,53,29.90
2014,08,10,16,54,30.00
2014,08,10,16,55,30.10
2014,08,10,16,56,30.20
2014,08,10,16,57,30.30
2014,08,10,16,58,30.30
2014,08,10,16,59,30.30
2014,08,10,17,00,30.30
2014,08,10,17,01,30.30
2014,08,10,17,02,30.30
2014,08,10,17,03,30.20
2014,08,10,17,04,30.20
2014,08,10,17,05,30.20
2014,08,10,17,06,30.10
2014,08,10,17,07,30.10
2014,08,10,17,08,30.20
2014,08,10,17,09,30.20
2014,08,10,17,10,30.30
2014,08,10,17,11,30.30
2014,08,10,17,12,30.40
2014,08,10,17,13,30.50
2014,08,10,17,14,30.50
2014,08,10,17,15,30.60
2014,08,10,17,16,30.60
2014,08,10,17,17,30.60
2014,08,10,17,18,30.60
2014,08,10,17,19,30.60